Location: Antoign�
(47.0844°N, 0.1131°W)
Time: 11:14:43
(UTC+00:00)

Meteor 1-20 Rocket - Pass Details

Date: 03 March 2021
Orbit: 820 x 891 km, 81.2° (Epoch: 10 April)

Event Time Altitude Azimuth Distance (km) Brightness Sun altitude
Rises 18:07:06 0° 176° (S) 3,339 7.3 -3.9°
Reaches altitude 10° 18:09:30 10° 173° (S) 2,410 6.6 -4.3°
Maximum altitude 18:14:49 57° 95° (E) 965 4.2 -5.2°
Drops below altitude 10° 18:20:12 10° 19° (NNE) 2,443 6.4 -6.1°
Sets 18:22:40 0° 15° (NNE) 3,389 7.2 -6.5°
